THORAD AGENA D DEB

Satellite information

Favourite Embed

Satellite Type and Status

DEBRISIN ORBIT

Key statistics

Satellite THORAD AGENA D DEB at a glance.

Uptime

20293

Days in orbit

Revolutions

≈ 13.9

Per day

Orbit

SSO

Sun Synchronous Orbit

Inclination

100.1

Latest

Satellite identification and parameters

Extended collection of information and parameters for THORAD AGENA D DEB.

Object identification

Identified? True

Debris? True

Object name: THORAD AGENA D DEB

International designator: 1970-025CH

Object number (NORAD): 4734

Object ID (CCSDS): 4734

Country: UNITED STATES OF AMERICA (US)

Current information (Y/N): Y

RCS size: SMALL

Orbital parameters

Period: 103.886 minutes

Inclination: 100.1249 deg

SMA: 7320.346 km

Apoapsis: 1001.615 km

Periapsis: 882.807 km

RAAN: 2.4931 deg

Eccentricy: 0.00811493

Argument of periapsis: 245.1556 deg

Mean anomaly: 114.1143 deg

Mean motion: 13.86134384 rev/day

Mean motion (dot): 0.0000059 rev/day2

B* drag term: 0.00054217642 1/REarth

Two-line elements (TLE)

Creation date: Oct. 28, 2025, 2:18 a.m.

Reference frame: TEME

Reference center: EARTH

Epoch: Oct. 27, 2025, 9:59 p.m. UTC

TLE line 0: 0 THORAD AGENA D DEB

TLE line 1: 1 04734U 70025CH 25300.91658702 .00000590 00000-0 54218-3 0 9997

TLE line 2: 2 04734 100.1249 2.4931 0081149 245.1556 114.1143 13.86134384790380

Live tracking on map

Real-time ground track for satellite THORAD AGENA D DEB.

In-orbit conjunctions

A list of the most updated potential collisions computed for object THORAD AGENA D DEB.

Target Orbit TCA Probability of collision Miss distance Type
SL-8 R/B LEO 2025-10-07 17:21:34 0.001022397 91.0 (m) ROCKET BODY
COSMOS 970 DEB LEO 2024-10-31 18:19:29 0.0002465203 116.0 (m) DEBRIS
FENGYUN 1C DEB SSO 2024-10-02 02:36:00 0.0001333792 113.0 (m) DEBRIS
CZ-6A DEB SSO 2024-06-30 07:57:58 0.0002396207 243.0 (m) DEBRIS

Associated space launch

Meteorological research and development satellite

THORAD AGENA D DEB was lifted into orbit during the mission ‘Thorad SLV-2G Agena D | Nimbus 4’, on board a Thorad SLV-2G Agena D space rocket.

The launch took place on April 8, 1970, 8:17 a.m. from Space Launch Complex 2E.

For more information about the launch, click the button.

Launch to space Thorad SLV-2G Agena D | Nimbus 4
Thorad SLV-2G Agena D | Nimbus 4

Agency: N/A

Status: Launch Successful

Launch date: April 8, 1970, 8:17 a.m. UTC

Rocket: Thorad SLV-2G Agena D

Launch pad: Space Launch Complex 2E

Location: Vandenberg SFB, CA, USA

...

Latest news about this satellite

There are no fresh news available about this satellite. Check back as we update our databases every day.


Newsletter sign-up

Weekly statistics, charts and insights to help you stay on top of the space industry.